contact:dominique.lefevre@mio.osupytheas.fr, maurice.libes@osupytheas.fr, didier.mallarino@osupytheas.fr
Project:EMSO http://www.emso-fr.org/EMSO-France
Depth: 2436.0 m
Title:EMSO Ligure Ouest : Data MII capteur AQUADOPP
Date,Latitude,Longitude,X_East,Y_North,Z_Up,Amplitude_X,Amplitude_Y,Amplitude_Z,Batterie,SoundSpeed,Heading,Pitch,Roll,Pressure,TIS,Speed,Direction
, degrees North, degrees East, m.s-1, m.s-1,m.s-1, 1, 1, 1, Volt, m.s-1, degree, degree, degree, dbar, degree_C, m.s-1, degree
2019-11-28T00:04:03,42.805,6.029,0.047,0.003,-0.026,101.0,105.0,99.0,13.4,1505.2,325.0,-0.7,1.8,2470.275,13.3,0.047,86.4
2019-11-28T00:07:03,42.805,6.029,0.051,-0.005,0.011,102.0,104.0,99.0,13.3,1505.3,325.9,-0.7,1.8,2470.257,13.31,0.051,95.6
2019-11-28T00:10:03,42.805,6.029,0.058,-0.007,-0.022,101.0,105.0,99.0,13.4,1505.3,325.4,-0.7,1.8,2470.235,13.31,0.058,96.9
2019-11-28T00:13:03,42.805,6.029,0.047,-0.017,-0.03,103.0,105.0,98.0,13.4,1505.3,326.8,-0.7,1.8,2470.228,13.32,0.049,109.9
2019-11-28T00:16:03,42.805,6.029,0.046,-0.011,-0.042,103.0,104.0,100.0,13.4,1505.3,325.5,-0.7,1.9,2470.183,13.32,0.047,103.4
2019-11-28T00:19:03,42.805,6.029,0.031,0.0,-0.053,102.0,105.0,99.0,13.4,1505.3,328.3,-0.7,1.8,2470.238,13.32,0.03,90.0
2019-11-28T00:22:03,42.805,6.029,0.057,-0.014,-0.015,102.0,105.0,99.0,13.4,1505.3,323.8,-0.7,1.8,2470.212,13.32,0.058,103.8
2019-11-28T00:25:03,42.805,6.029,0.039,-0.006,-0.034,103.0,105.0,99.0,13.4,1505.3,324.8,-0.7,1.8,2470.218,13.32,0.039,98.7
2019-11-28T00:28:03,42.805,6.029,0.056,0.011,-0.024,101.0,105.0,99.0,13.4,1505.3,324.2,-0.7,1.8,2470.219,13.32,0.057,78.9
2019-11-28T00:31:03,42.805,6.029,0.052,0.01,-0.03,101.0,105.0,99.0,13.4,1505.3,323.3,-0.7,1.8,2470.237,13.32,0.052,79.1
2019-11-28T00:34:03,42.805,6.029,0.055,-0.014,-0.029,101.0,106.0,100.0,13.4,1505.3,326.6,-0.7,1.8,2470.247,13.32,0.056,104.3
2019-11-28T00:37:03,42.805,6.029,0.058,-0.001,-0.003,102.0,105.0,99.0,13.4,1505.3,323.1,-0.7,1.9,2470.217,13.32,0.058,91.0
2019-11-28T00:40:03,42.805,6.029,0.049,-0.003,-0.024,102.0,107.0,99.0,13.4,1505.3,324.6,-0.7,1.9,2470.207,13.32,0.049,93.5
2019-11-28T00:43:03,42.805,6.029,0.059,0.031,0.005,101.0,105.0,100.0,13.4,1505.3,324.8,-0.7,1.8,2470.207,13.32,0.066,62.3
2019-11-28T00:46:03,42.805,6.029,0.037,0.0,-0.011,102.0,108.0,99.0,13.4,1505.3,324.6,-0.7,1.8,2470.164,13.32,0.037,90.0
2019-11-28T00:49:03,42.805,6.029,0.021,0.002,-0.02,102.0,108.0,99.0,13.3,1505.3,324.6,-0.7,1.9,2470.217,13.32,0.021,84.6
2019-11-28T00:52:03,42.805,6.029,0.038,-0.036,-0.016,102.0,107.0,99.0,13.4,1505.3,327.5,-0.7,1.8,2470.207,13.32,0.052,133.5
2019-11-28T00:55:03,42.805,6.029,0.051,0.01,-0.017,102.0,105.0,100.0,13.3,1505.3,324.5,-0.7,1.9,2470.187,13.32,0.051,78.9
2019-11-28T00:58:03,42.805,6.029,0.058,-0.001,-0.039,102.0,105.0,100.0,13.3,1505.3,326.1,-0.7,1.9,2470.166,13.32,0.058,91.0
2019-11-28T01:04:03,42.805,6.029,0.049,-0.013,-0.009,102.0,105.0,99.0,13.4,1505.2,325.7,-0.7,1.8,2470.229,13.3,0.05,104.9
2019-11-28T01:07:02,42.805,6.029,0.044,0.001,-0.009,102.0,106.0,99.0,13.3,1505.3,325.3,-0.7,1.8,2470.229,13.31,0.044,88.7
2019-11-28T01:10:03,42.805,6.029,0.058,0.008,-0.018,100.0,104.0,100.0,13.3,1505.3,324.2,-0.7,1.9,2470.193,13.31,0.058,82.2
2019-11-28T01:13:03,42.805,6.029,0.029,0.012,-0.025,103.0,106.0,98.0,13.3,1505.3,324.6,-0.8,1.8,2470.221,13.32,0.031,67.5
2019-11-28T01:16:03,42.805,6.029,0.049,-0.002,-0.005,100.0,106.0,100.0,13.3,1505.3,324.0,-0.7,1.9,2470.171,13.32,0.049,92.3
2019-11-28T01:19:03,42.805,6.029,0.058,-0.005,-0.034,102.0,106.0,99.0,13.4,1505.3,325.8,-0.7,1.8,2470.158,13.32,0.058,94.9
2019-11-28T01:22:03,42.805,6.029,0.049,0.004,-0.01,102.0,106.0,99.0,13.4,1505.3,325.9,-0.7,1.9,2470.207,13.32,0.049,85.3
2019-11-28T01:25:03,42.805,6.029,0.046,0.0,-0.019,101.0,105.0,99.0,13.3,1505.3,324.6,-0.7,1.8,2470.179,13.32,0.046,90.0
2019-11-28T01:28:03,42.805,6.029,0.033,-0.003,-0.031,102.0,105.0,100.0,13.4,1505.3,326.5,-0.7,1.8,2470.21,13.32,0.033,95.2
2019-11-28T01:31:03,42.805,6.029,0.065,0.013,-0.002,101.0,106.0,100.0,13.3,1505.3,325.4,-0.6,1.9,2470.18,13.32,0.066,78.7
2019-11-28T01:34:03,42.805,6.029,0.071,0.002,-0.018,101.0,107.0,99.0,13.3,1505.3,328.5,-0.7,1.8,2470.188,13.32,0.071,88.4
2019-11-28T01:37:03,42.805,6.029,0.051,0.004,-0.025,102.0,106.0,99.0,13.3,1505.3,325.1,-0.7,1.8,2470.209,13.32,0.051,85.5
2019-11-28T01:40:03,42.805,6.029,0.057,-0.003,0.0,102.0,108.0,100.0,13.4,1505.3,327.3,-0.7,1.9,2470.141,13.32,0.057,93.0
2019-11-28T01:43:03,42.805,6.029,0.018,0.001,-0.014,103.0,106.0,99.0,13.3,1505.3,326.0,-0.7,1.8,2470.167,13.32,0.018,86.8
2019-11-28T01:46:03,42.805,6.029,0.05,0.0,-0.008,102.0,105.0,99.0,13.4,1505.3,326.4,-0.7,1.8,2470.178,13.32,0.05,90.0
2019-11-28T01:49:03,42.805,6.029,0.039,0.009,-0.02,102.0,106.0,100.0,13.4,1505.3,324.4,-0.7,1.8,2470.199,13.32,0.04,77.0
2019-11-28T01:52:03,42.805,6.029,0.055,-0.018,-0.015,102.0,107.0,99.0,13.4,1505.3,324.2,-0.7,1.8,2470.179,13.32,0.057,108.1
2019-11-28T01:55:03,42.805,6.029,0.074,-0.015,-0.031,103.0,106.0,99.0,13.3,1505.3,327.2,-0.7,1.8,2470.177,13.32,0.075,101.5
2019-11-28T01:58:03,42.805,6.029,0.053,0.009,-0.009,102.0,105.0,98.0,13.4,1505.3,327.8,-0.7,1.8,2470.179,13.32,0.053,80.4
2019-11-28T02:04:03,42.805,6.029,0.047,-0.002,0.001,102.0,105.0,99.0,13.3,1505.2,326.3,-0.7,1.8,2470.208,13.3,0.047,92.4
2019-11-28T02:07:03,42.805,6.029,0.037,0.005,-0.014,102.0,105.0,99.0,13.4,1505.3,323.7,-0.7,1.8,2470.225,13.31,0.037,82.3
2019-11-28T02:10:03,42.805,6.029,0.047,0.011,-0.01,101.0,106.0,99.0,13.4,1505.3,325.7,-0.7,1.8,2470.207,13.31,0.048,76.8
2019-11-28T02:13:03,42.805,6.029,0.051,0.025,0.0,101.0,109.0,100.0,13.4,1505.3,326.3,-0.7,1.9,2470.222,13.32,0.056,63.9
2019-11-28T02:16:03,42.805,6.029,0.071,0.0,-0.004,102.0,107.0,99.0,13.4,1505.3,325.1,-0.7,1.8,2470.214,13.32,0.07,90.0
2019-11-28T02:19:03,42.805,6.029,0.058,-0.009,0.019,101.0,107.0,100.0,13.4,1505.3,325.3,-0.7,1.8,2470.239,13.32,0.058,98.8
2019-11-28T02:22:03,42.805,6.029,0.05,0.008,0.007,101.0,105.0,100.0,13.4,1505.3,325.1,-0.7,1.8,2470.17,13.32,0.05,80.9
2019-11-28T02:25:03,42.805,6.029,0.021,0.024,-0.014,101.0,106.0,99.0,13.4,1505.3,328.1,-0.7,1.8,2470.176,13.32,0.031,41.2
2019-11-28T02:28:03,42.805,6.029,0.051,-0.002,0.005,102.0,106.0,99.0,13.4,1505.3,327.2,-0.7,1.8,2470.157,13.32,0.051,92.2
2019-11-28T02:31:03,42.805,6.029,0.044,-0.007,-0.044,101.0,108.0,101.0,13.4,1505.3,324.9,-0.7,1.8,2470.207,13.32,0.044,99.0
2019-11-28T02:34:03,42.805,6.029,0.038,0.002,-0.012,102.0,106.0,99.0,13.4,1505.3,327.0,-0.7,1.8,2470.208,13.32,0.038,87.0
2019-11-28T02:37:03,42.805,6.029,0.05,-0.01,-0.036,102.0,106.0,99.0,13.4,1505.3,326.4,-0.7,1.8,2470.174,13.32,0.05,101.3
2019-11-28T02:40:03,42.805,6.029,0.042,-0.008,-0.021,102.0,105.0,99.0,13.4,1505.3,324.9,-0.7,1.9,2470.184,13.32,0.042,100.8
2019-11-28T02:43:03,42.805,6.029,0.044,-0.001,-0.007,102.0,105.0,100.0,13.4,1505.3,326.8,-0.7,1.8,2470.143,13.32,0.044,91.3
2019-11-28T02:46:03,42.805,6.029,0.037,-0.013,-0.023,102.0,106.0,99.0,13.4,1505.3,325.7,-0.7,1.8,2470.158,13.32,0.039,109.4
2019-11-28T02:49:03,42.805,6.029,0.054,-0.003,-0.037,101.0,107.0,99.0,13.4,1505.3,326.9,-0.7,1.9,2470.157,13.32,0.054,93.2
2019-11-28T02:52:03,42.805,6.029,0.041,-0.008,0.009,102.0,106.0,100.0,13.4,1505.3,326.1,-0.7,1.9,2470.154,13.32,0.041,101.0
2019-11-28T02:55:03,42.805,6.029,0.046,0.006,-0.016,103.0,106.0,100.0,13.4,1505.3,325.7,-0.7,1.9,2470.183,13.32,0.046,82.6
2019-11-28T02:58:03,42.805,6.029,0.045,-0.005,-0.042,102.0,107.0,99.0,13.3,1505.3,328.0,-0.7,1.8,2470.194,13.32,0.045,96.3
2019-11-28T03:04:03,42.805,6.029,0.041,0.001,-0.047,103.0,108.0,100.0,13.4,1505.2,326.5,-0.8,1.8,2470.207,13.3,0.041,88.6
2019-11-28T03:07:03,42.805,6.029,0.053,0.004,-0.007,101.0,106.0,100.0,13.4,1505.3,327.9,-0.7,1.8,2470.176,13.31,0.053,85.7
2019-11-28T03:10:03,42.805,6.029,0.041,0.001,-0.039,103.0,105.0,99.0,13.4,1505.3,323.5,-0.7,1.9,2470.195,13.32,0.041,88.6
2019-11-28T03:13:03,42.805,6.029,0.071,0.0,-0.022,102.0,108.0,100.0,13.4,1505.3,327.6,-0.7,1.8,2470.171,13.32,0.07,90.0
2019-11-28T03:16:03,42.805,6.029,0.041,0.009,-0.027,103.0,107.0,99.0,13.4,1505.3,327.4,-0.7,1.9,2470.196,13.32,0.041,77.6
2019-11-28T03:19:03,42.805,6.029,0.043,0.0,-0.061,103.0,107.0,99.0,13.4,1505.3,328.1,-0.7,1.8,2470.201,13.32,0.043,90.0
2019-11-28T03:22:03,42.805,6.029,0.051,-0.014,-0.056,103.0,107.0,99.0,13.4,1505.3,325.7,-0.7,1.9,2470.21,13.32,0.052,105.3
2019-11-28T03:25:03,42.805,6.029,0.047,0.0,-0.004,105.0,107.0,100.0,13.4,1505.3,327.9,-0.7,1.8,2470.195,13.32,0.047,90.0
2019-11-28T03:28:03,42.805,6.029,0.037,0.003,-0.038,103.0,107.0,99.0,13.4,1505.3,327.4,-0.7,1.9,2470.165,13.32,0.037,85.4
2019-11-28T03:31:03,42.805,6.029,0.048,0.002,-0.024,104.0,106.0,98.0,13.4,1505.3,325.5,-0.7,1.8,2470.161,13.32,0.048,87.6
2019-11-28T03:34:03,42.805,6.029,0.056,0.005,-0.02,104.0,107.0,100.0,13.4,1505.3,323.5,-0.7,1.8,2470.187,13.32,0.056,84.9
2019-11-28T03:37:03,42.805,6.029,0.056,-0.012,-0.038,103.0,108.0,99.0,13.3,1505.3,326.9,-0.7,1.9,2470.158,13.32,0.057,102.1
2019-11-28T03:40:03,42.805,6.029,0.058,0.005,0.018,102.0,108.0,101.0,13.4,1505.3,324.5,-0.7,1.8,2470.174,13.32,0.058,85.1
2019-11-28T03:43:03,42.805,6.029,0.035,-0.012,-0.028,102.0,109.0,99.0,13.3,1505.3,328.6,-0.7,1.8,2470.221,13.32,0.037,108.9
2019-11-28T03:46:03,42.805,6.029,0.032,0.012,-0.014,102.0,107.0,100.0,13.4,1505.3,324.8,-0.7,1.8,2470.218,13.32,0.034,69.4
2019-11-28T03:49:03,42.805,6.029,0.056,0.002,0.003,102.0,108.0,99.0,13.4,1505.3,326.3,-0.7,1.8,2470.21,13.32,0.056,88.0
2019-11-28T03:52:03,42.805,6.029,0.032,0.01,-0.019,102.0,110.0,100.0,13.4,1505.3,326.0,-0.7,1.8,2470.188,13.32,0.033,72.6
2019-11-28T03:55:03,42.805,6.029,0.04,0.016,-0.032,102.0,108.0,100.0,13.4,1505.3,324.6,-0.7,1.8,2470.232,13.32,0.043,68.2
2019-11-28T03:58:03,42.805,6.029,0.044,-0.004,-0.028,102.0,109.0,99.0,13.3,1505.3,324.8,-0.7,1.8,2470.204,13.32,0.044,95.2
2019-11-28T04:04:03,42.805,6.029,0.059,-0.012,0.006,102.0,108.0,99.0,13.3,1505.2,328.3,-0.7,1.8,2470.242,13.3,0.06,101.5
2019-11-28T04:10:03,42.805,6.029,0.039,0.008,-0.012,102.0,108.0,100.0,13.3,1505.2,323.8,-0.8,1.8,2470.281,13.3,0.039,78.4
2019-11-28T04:13:03,42.805,6.029,0.032,0.012,-0.028,103.0,109.0,99.0,13.3,1505.3,326.4,-0.7,1.8,2470.242,13.31,0.034,69.4
2019-11-28T04:16:03,42.805,6.029,0.035,0.014,0.02,101.0,108.0,100.0,13.4,1505.3,327.5,-0.7,1.9,2470.278,13.31,0.037,68.2
2019-11-28T04:19:03,42.805,6.029,0.026,0.002,-0.015,102.0,107.0,100.0,13.4,1505.3,323.7,-0.7,1.9,2470.253,13.32,0.026,85.6
2019-11-28T04:22:03,42.805,6.029,0.035,0.0,-0.038,102.0,109.0,99.0,13.3,1505.3,326.7,-0.7,1.8,2470.248,13.32,0.035,90.0
2019-11-28T04:25:03,42.805,6.029,0.036,-0.024,-0.023,102.0,108.0,100.0,13.3,1505.3,325.2,-0.7,1.8,2470.232,13.32,0.043,123.7
2019-11-28T04:28:03,42.805,6.029,0.024,0.013,-0.026,102.0,108.0,100.0,13.4,1505.3,326.4,-0.7,1.8,2470.246,13.32,0.027,61.6
2019-11-28T04:31:03,42.805,6.029,0.032,-0.012,-0.015,102.0,107.0,99.0,13.4,1505.3,323.6,-0.7,1.8,2470.269,13.32,0.034,110.6
2019-11-28T04:34:03,42.805,6.029,0.008,0.0,-0.025,102.0,108.0,100.0,13.4,1505.3,326.8,-0.7,1.8,2470.265,13.32,0.008,90.0
2019-11-28T04:37:03,42.805,6.029,0.049,0.007,-0.015,103.0,107.0,99.0,13.3,1505.3,326.8,-0.7,1.8,2470.263,13.32,0.049,81.9
2019-11-28T04:40:03,42.805,6.029,0.062,-0.014,-0.036,102.0,109.0,100.0,13.3,1505.3,325.0,-0.7,1.8,2470.2,13.32,0.063,102.7
2019-11-28T04:43:03,42.805,6.029,0.043,0.004,-0.019,102.0,110.0,100.0,13.4,1505.3,324.4,-0.7,1.8,2470.271,13.32,0.043,84.7
2019-11-28T04:46:03,42.805,6.029,0.046,0.012,-0.014,104.0,110.0,100.0,13.3,1505.3,326.6,-0.7,1.8,2470.267,13.32,0.047,75.4
2019-11-28T04:49:03,42.805,6.029,0.053,-0.004,-0.028,103.0,110.0,100.0,13.4,1505.3,328.2,-0.7,1.9,2470.239,13.32,0.053,94.3
2019-11-28T04:52:03,42.805,6.029,0.04,-0.005,-0.018,103.0,108.0,99.0,13.4,1505.3,326.5,-0.7,1.8,2470.283,13.32,0.04,97.1
2019-11-28T04:55:03,42.805,6.029,0.067,0.001,0.014,102.0,107.0,100.0,13.4,1505.3,325.8,-0.7,1.8,2470.242,13.32,0.067,89.1
2019-11-28T04:58:03,42.805,6.029,0.038,0.006,-0.055,102.0,109.0,100.0,13.4,1505.3,325.7,-0.7,1.8,2470.297,13.32,0.038,81.0
2019-11-28T05:04:03,42.805,6.029,0.038,0.019,-0.023,102.0,109.0,100.0,13.4,1505.2,328.2,-0.8,1.8,2470.344,13.3,0.042,63.4
2019-11-28T05:07:03,42.805,6.029,0.063,-0.002,-0.041,102.0,108.0,100.0,13.3,1505.3,328.3,-0.7,1.8,2470.317,13.31,0.063,91.8
2019-11-28T05:10:03,42.805,6.029,0.047,-0.012,-0.013,102.0,107.0,101.0,13.4,1505.3,326.5,-0.7,1.8,2470.325,13.31,0.048,104.3
2019-11-28T05:13:03,42.805,6.029,0.049,0.011,-0.009,103.0,107.0,100.0,13.4,1505.3,326.9,-0.7,1.8,2470.333,13.32,0.05,77.3
2019-11-28T05:16:03,42.805,6.029,0.038,0.001,-0.057,102.0,108.0,100.0,13.4,1505.3,324.5,-0.7,1.8,2470.317,13.32,0.038,88.5
2019-11-28T05:19:03,42.805,6.029,0.049,0.02,-0.013,102.0,110.0,99.0,13.4,1505.3,325.8,-0.7,1.8,2470.32,13.32,0.052,67.8
2019-11-28T05:22:03,42.805,6.029,0.028,-0.01,-0.031,102.0,108.0,100.0,13.4,1505.3,325.8,-0.7,1.8,2470.293,13.32,0.029,109.6
2019-11-28T05:25:03,42.805,6.029,0.058,-0.003,0.004,103.0,106.0,100.0,13.4,1505.3,326.9,-0.8,1.8,2470.301,13.32,0.058,93.0
2019-11-28T05:28:03,42.805,6.029,0.043,0.015,0.008,102.0,108.0,99.0,13.3,1505.3,324.0,-0.7,1.8,2470.292,13.32,0.045,70.8
2019-11-28T05:31:03,42.805,6.029,0.039,0.01,-0.021,102.0,107.0,100.0,13.4,1505.3,328.2,-0.7,1.8,2470.308,13.32,0.04,75.6
2019-11-28T05:34:03,42.805,6.029,0.044,0.007,-0.013,103.0,107.0,100.0,13.4,1505.3,325.5,-0.7,1.8,2470.293,13.32,0.044,81.0
2019-11-28T05:37:03,42.805,6.029,0.031,-0.018,-0.071,101.0,108.0,100.0,13.4,1505.3,327.4,-0.7,1.9,2470.345,13.32,0.035,120.1
2019-11-28T05:40:03,42.805,6.029,0.049,-0.005,-0.024,102.0,107.0,100.0,13.4,1505.3,324.0,-0.7,1.8,2470.336,13.32,0.049,95.8
2019-11-28T05:43:03,42.805,6.029,0.043,0.01,-0.015,103.0,108.0,100.0,13.3,1505.3,327.8,-0.7,1.9,2470.302,13.32,0.044,76.9
2019-11-28T05:46:03,42.805,6.029,0.056,0.005,-0.014,104.0,108.0,100.0,13.4,1505.3,328.0,-0.7,1.8,2470.317,13.32,0.056,84.9
2019-11-28T05:49:03,42.805,6.029,0.049,-0.003,-0.027,103.0,109.0,100.0,13.4,1505.3,326.6,-0.7,1.8,2470.336,13.32,0.049,93.5
2019-11-28T05:52:03,42.805,6.029,0.038,0.0,-0.017,102.0,109.0,100.0,13.4,1505.3,323.2,-0.7,1.8,2470.379,13.32,0.038,90.0
2019-11-28T05:55:03,42.805,6.029,0.046,0.0,-0.007,103.0,109.0,100.0,13.4,1505.3,327.8,-0.7,1.8,2470.326,13.32,0.046,90.0
2019-11-28T05:58:03,42.805,6.029,0.025,0.035,-0.009,103.0,107.0,99.0,13.3,1505.3,326.0,-0.7,1.8,2470.369,13.32,0.043,35.5
2019-11-28T06:04:02,42.805,6.029,0.068,-0.006,-0.025,103.0,107.0,100.0,13.4,1505.2,326.6,-0.8,1.8,2470.395,13.3,0.068,95.0
2019-11-28T06:07:03,42.805,6.029,0.036,0.0,-0.012,102.0,110.0,100.0,13.3,1505.3,328.1,-0.7,1.9,2470.387,13.31,0.036,90.0
2019-11-28T06:10:03,42.805,6.029,0.029,0.0,-0.042,104.0,108.0,100.0,13.4,1505.3,326.7,-0.7,1.8,2470.376,13.32,0.028,90.0
2019-11-28T06:13:03,42.805,6.029,0.061,-0.005,0.019,102.0,107.0,100.0,13.4,1505.3,327.8,-0.7,1.8,2470.434,13.32,0.061,94.7
2019-11-28T06:16:03,42.805,6.029,0.062,-0.013,-0.038,103.0,107.0,99.0,13.4,1505.3,324.8,-0.7,1.8,2470.402,13.32,0.063,101.8
2019-11-28T06:19:03,42.805,6.029,0.044,0.005,-0.005,103.0,107.0,99.0,13.4,1505.3,325.1,-0.7,1.8,2470.412,13.32,0.044,83.5
2019-11-28T06:22:03,42.805,6.029,0.051,-0.003,-0.018,103.0,109.0,99.0,13.4,1505.3,327.4,-0.7,1.8,2470.395,13.32,0.051,93.4
2019-11-28T06:25:03,42.805,6.029,0.044,-0.007,-0.024,101.0,108.0,99.0,13.4,1505.3,328.7,-0.7,1.8,2470.424,13.32,0.044,99.0
2019-11-28T06:28:03,42.805,6.029,0.046,-0.014,-0.019,101.0,108.0,100.0,13.3,1505.3,327.7,-0.7,1.8,2470.416,13.32,0.048,106.9
2019-11-28T06:31:03,42.805,6.029,0.057,0.011,-0.017,103.0,108.0,99.0,13.4,1505.3,324.9,-0.7,1.8,2470.41,13.32,0.058,79.1
2019-11-28T06:34:03,42.805,6.029,0.028,-0.02,-0.01,102.0,108.0,100.0,13.3,1505.3,326.1,-0.7,1.8,2470.435,13.32,0.034,125.5
2019-11-28T06:37:03,42.805,6.029,0.051,0.0,-0.027,102.0,108.0,100.0,13.4,1505.3,325.6,-0.7,1.8,2470.472,13.32,0.051,90.0
2019-11-28T06:40:03,42.805,6.029,0.029,0.011,-0.012,102.0,107.0,99.0,13.3,1505.3,324.9,-0.7,1.9,2470.408,13.32,0.031,69.2
2019-11-28T06:43:03,42.805,6.029,0.052,0.005,-0.015,102.0,108.0,100.0,13.4,1505.3,324.6,-0.7,1.8,2470.462,13.32,0.052,84.5
2019-11-28T06:46:03,42.805,6.029,0.058,0.01,-0.028,104.0,106.0,101.0,13.4,1505.3,324.0,-0.7,1.8,2470.404,13.32,0.058,80.2
2019-11-28T06:49:03,42.805,6.029,0.047,-0.002,-0.045,103.0,107.0,99.0,13.3,1505.3,327.4,-0.7,1.8,2470.453,13.32,0.047,92.4
2019-11-28T06:52:03,42.805,6.029,0.038,-0.017,-0.019,102.0,108.0,101.0,13.4,1505.3,325.0,-0.7,1.9,2470.434,13.32,0.041,114.1
2019-11-28T06:55:03,42.805,6.029,0.064,-0.009,-0.006,103.0,107.0,99.0,13.3,1505.3,326.7,-0.7,1.8,2470.423,13.32,0.064,98.0
2019-11-28T06:58:03,42.805,6.029,0.042,-0.002,-0.026,102.0,107.0,99.0,13.4,1505.3,328.6,-0.7,1.8,2470.422,13.32,0.042,92.7
2019-11-28T07:04:03,42.805,6.029,0.039,0.014,-0.018,103.0,108.0,100.0,13.3,1505.2,323.9,-0.7,1.8,2470.487,13.3,0.041,70.3
2019-11-28T07:07:03,42.805,6.029,0.046,0.01,-0.009,101.0,110.0,100.0,13.4,1505.3,327.6,-0.7,1.8,2470.47,13.31,0.047,77.7
2019-11-28T07:10:03,42.805,6.029,0.052,0.004,-0.03,102.0,107.0,100.0,13.3,1505.3,326.9,-0.7,1.8,2470.462,13.31,0.052,85.6
2019-11-28T07:13:03,42.805,6.029,0.039,0.015,-0.015,103.0,106.0,100.0,13.4,1505.3,325.1,-0.7,1.8,2470.42,13.32,0.041,69.0
2019-11-28T07:16:03,42.805,6.029,0.052,-0.004,-0.018,103.0,108.0,99.0,13.4,1505.3,325.0,-0.7,1.9,2470.452,13.32,0.052,94.4
2019-11-28T07:19:03,42.805,6.029,0.066,0.024,0.032,101.0,106.0,100.0,13.4,1505.3,324.1,-0.7,1.8,2470.463,13.32,0.07,70.0
2019-11-28T07:22:03,42.805,6.029,0.046,0.0,0.0,101.0,106.0,100.0,13.4,1505.3,328.4,-0.7,1.8,2470.445,13.32,0.046,90.0
2019-11-28T07:25:03,42.805,6.029,0.049,0.009,-0.016,103.0,107.0,100.0,13.3,1505.3,323.9,-0.7,1.9,2470.413,13.32,0.049,79.6
2019-11-28T07:28:03,42.805,6.029,0.044,0.0,-0.008,102.0,107.0,99.0,13.3,1505.3,324.6,-0.7,1.8,2470.453,13.32,0.044,90.0
2019-11-28T07:31:03,42.805,6.029,0.043,0.003,-0.007,102.0,106.0,100.0,13.3,1505.3,323.1,-0.7,1.8,2470.471,13.32,0.043,86.0
2019-11-28T07:34:03,42.805,6.029,0.054,0.018,-0.031,102.0,106.0,100.0,13.3,1505.3,324.0,-0.7,1.9,2470.466,13.32,0.056,71.6
2019-11-28T07:37:03,42.805,6.029,0.049,-0.011,-0.007,101.0,110.0,100.0,13.4,1505.3,326.3,-0.7,1.8,2470.487,13.32,0.05,102.7
2019-11-28T07:40:03,42.805,6.029,0.045,-0.003,-0.03,101.0,106.0,100.0,13.4,1505.3,326.8,-0.7,1.8,2470.473,13.32,0.045,93.8
2019-11-28T07:43:03,42.805,6.029,0.037,0.002,-0.002,102.0,106.0,100.0,13.3,1505.3,326.8,-0.7,1.8,2470.476,13.32,0.037,86.9
2019-11-28T07:46:03,42.805,6.029,0.049,-0.008,-0.015,102.0,106.0,100.0,13.3,1505.3,323.0,-0.7,1.8,2470.449,13.32,0.049,99.3
2019-11-28T07:49:03,42.805,6.029,0.065,0.002,-0.024,103.0,106.0,99.0,13.3,1505.3,325.8,-0.7,1.9,2470.436,13.32,0.065,88.2
2019-11-28T07:52:03,42.805,6.029,0.036,-0.002,-0.067,102.0,106.0,100.0,13.3,1505.3,325.9,-0.7,1.9,2470.456,13.32,0.036,93.2
2019-11-28T07:55:03,42.805,6.029,0.06,-0.009,-0.014,102.0,106.0,100.0,13.4,1505.3,323.8,-0.7,1.8,2470.452,13.32,0.06,98.5
2019-11-28T07:58:03,42.805,6.029,0.053,-0.009,-0.066,102.0,105.0,99.0,13.3,1505.3,326.5,-0.7,1.8,2470.494,13.32,0.053,99.6
2019-11-28T08:04:03,42.805,6.029,0.041,0.0,-0.014,102.0,108.0,99.0,13.3,1505.2,326.3,-0.7,1.8,2470.498,13.3,0.041,90.0
2019-11-28T08:07:03,42.805,6.029,0.052,0.024,-0.002,102.0,107.0,100.0,13.4,1505.3,326.5,-0.7,1.8,2470.489,13.31,0.057,65.2
2019-11-28T08:10:03,42.805,6.029,0.07,-0.026,-0.027,103.0,106.0,99.0,13.4,1505.3,328.6,-0.7,1.8,2470.478,13.31,0.074,110.4
2019-11-28T08:13:03,42.805,6.029,0.039,-0.015,-0.034,102.0,108.0,99.0,13.4,1505.3,326.7,-0.7,1.8,2470.474,13.32,0.041,111.0
2019-11-28T08:16:03,42.805,6.029,0.055,0.0,-0.04,103.0,106.0,99.0,13.4,1505.3,327.3,-0.7,1.8,2470.455,13.32,0.055,90.0
2019-11-28T08:19:03,42.805,6.029,0.054,0.001,0.013,102.0,107.0,100.0,13.4,1505.3,325.4,-0.7,1.8,2470.435,13.32,0.054,88.9
2019-11-28T08:22:03,42.805,6.029,0.053,0.015,-0.023,102.0,106.0,100.0,13.3,1505.3,327.9,-0.7,1.8,2470.453,13.32,0.055,74.2
2019-11-28T08:25:03,42.805,6.029,0.053,-0.005,-0.026,102.0,106.0,100.0,13.3,1505.3,324.8,-0.7,1.8,2470.447,13.32,0.053,95.4
2019-11-28T08:28:03,42.805,6.029,0.027,-0.022,-0.008,103.0,106.0,100.0,13.3,1505.3,322.7,-0.7,1.8,2470.487,13.32,0.034,129.2
2019-11-28T08:31:03,42.805,6.029,0.036,-0.009,0.005,102.0,106.0,99.0,13.3,1505.3,327.8,-0.7,1.9,2470.462,13.32,0.037,104.0
2019-11-28T08:34:03,42.805,6.029,0.057,0.002,-0.035,102.0,106.0,100.0,13.3,1505.3,324.7,-0.7,1.8,2470.472,13.32,0.057,88.0
2019-11-28T08:37:03,42.805,6.029,0.036,-0.013,-0.021,103.0,106.0,100.0,13.4,1505.3,328.5,-0.7,1.8,2470.479,13.32,0.038,109.9
2019-11-28T08:40:03,42.805,6.029,0.047,-0.001,-0.016,102.0,104.0,100.0,13.4,1505.3,327.2,-0.7,1.8,2470.491,13.32,0.047,91.2
2019-11-28T08:43:03,42.805,6.029,0.056,0.008,0.003,103.0,105.0,100.0,13.4,1505.3,327.5,-0.7,1.8,2470.403,13.32,0.056,81.9
2019-11-28T08:46:03,42.805,6.029,0.022,0.003,-0.029,104.0,105.0,99.0,13.3,1505.3,327.1,-0.7,1.8,2470.474,13.32,0.022,82.2
2019-11-28T08:49:03,42.805,6.029,0.066,0.012,0.0,103.0,104.0,101.0,13.3,1505.3,328.1,-0.7,1.8,2470.454,13.32,0.067,79.7
2019-11-28T08:52:03,42.805,6.029,0.054,-0.006,-0.005,102.0,106.0,100.0,13.3,1505.3,326.5,-0.7,1.8,2470.417,13.32,0.054,96.3
2019-11-28T08:55:03,42.805,6.029,0.048,-0.007,-0.013,103.0,106.0,100.0,13.3,1505.3,328.3,-0.7,1.8,2470.445,13.32,0.048,98.3
2019-11-28T08:58:03,42.805,6.029,0.073,-0.029,-0.044,102.0,106.0,100.0,13.4,1505.3,326.6,-0.7,1.8,2470.431,13.32,0.078,111.7
2019-11-28T09:04:03,42.805,6.029,0.022,0.015,-0.017,101.0,109.0,99.0,13.4,1505.2,327.1,-0.7,1.8,2470.466,13.3,0.026,55.7
2019-11-28T09:07:03,42.805,6.029,0.037,0.015,-0.033,102.0,107.0,99.0,13.4,1505.3,327.9,-0.7,1.8,2470.447,13.31,0.039,67.9
2019-11-28T09:10:03,42.805,6.029,0.056,-0.012,-0.018,102.0,106.0,101.0,13.4,1505.3,326.6,-0.7,1.8,2470.478,13.31,0.057,102.1
2019-11-28T09:13:03,42.805,6.029,0.052,0.006,-0.013,102.0,105.0,100.0,13.4,1505.3,327.3,-0.7,1.8,2470.458,13.32,0.052,83.4
2019-11-28T09:16:03,42.805,6.029,0.057,0.002,-0.019,102.0,106.0,99.0,13.3,1505.3,327.0,-0.7,1.8,2470.444,13.32,0.057,88.0
2019-11-28T09:19:03,42.805,6.029,0.042,-0.008,-0.018,103.0,105.0,100.0,13.3,1505.3,325.9,-0.7,1.8,2470.464,13.32,0.042,100.8
2019-11-28T09:22:03,42.805,6.029,0.054,-0.006,-0.018,102.0,105.0,99.0,13.4,1505.3,323.2,-0.7,1.8,2470.427,13.32,0.054,96.3
2019-11-28T09:25:03,42.805,6.029,0.071,-0.008,0.009,102.0,107.0,101.0,13.4,1505.3,324.4,-0.7,1.8,2470.46,13.32,0.071,96.4
2019-11-28T09:28:03,42.805,6.029,0.058,-0.005,-0.042,101.0,106.0,99.0,13.4,1505.3,325.7,-0.7,1.8,2470.489,13.32,0.058,94.9
2019-11-28T09:31:03,42.805,6.029,0.052,-0.001,-0.004,103.0,104.0,100.0,13.4,1505.3,327.3,-0.7,1.8,2470.477,13.32,0.052,91.1
2019-11-28T09:34:03,42.805,6.029,0.029,0.007,-0.031,102.0,106.0,100.0,13.3,1505.3,323.8,-0.7,1.8,2470.445,13.32,0.029,76.4
2019-11-28T13:04:03,42.805,6.029,0.023,0.008,-0.016,103.0,109.0,101.0,13.4,1505.1,325.3,-0.8,1.8,2470.771,13.27,0.024,70.8
2019-11-28T13:07:03,42.805,6.029,0.041,0.003,0.003,105.0,109.0,102.0,13.4,1505.2,326.2,-0.7,1.9,2470.685,13.29,0.041,85.8
2019-11-28T13:10:03,42.805,6.029,0.055,-0.014,-0.009,103.0,109.0,101.0,13.4,1505.2,326.3,-0.7,1.9,2470.68,13.3,0.056,104.3
2019-11-28T13:13:03,42.805,6.029,0.035,-0.011,-0.002,105.0,108.0,102.0,13.3,1505.3,326.9,-0.7,1.9,2470.625,13.31,0.036,107.4
2019-11-28T13:16:03,42.805,6.029,0.036,-0.024,-0.014,104.0,108.0,101.0,13.4,1505.3,328.0,-0.7,1.8,2470.587,13.32,0.043,123.7
2019-11-28T13:19:03,42.805,6.029,0.0,0.002,-0.013,106.0,109.0,102.0,13.4,1505.3,324.3,-0.7,1.8,2470.554,13.32,0.002,0.0
2019-11-28T13:22:03,42.805,6.029,0.031,-0.002,-0.031,105.0,109.0,101.0,13.4,1505.3,328.1,-0.7,1.8,2470.531,13.32,0.031,93.7
2019-11-28T13:25:03,42.805,6.029,0.02,-0.011,0.015,105.0,108.0,100.0,13.4,1505.3,326.4,-0.7,1.9,2470.472,13.32,0.022,118.8
2019-11-28T13:28:03,42.805,6.029,0.003,0.009,-0.023,104.0,110.0,102.0,13.4,1505.3,325.5,-0.7,1.8,2470.452,13.32,0.009,18.4
2019-11-28T13:31:03,42.805,6.029,0.007,0.012,-0.019,105.0,109.0,102.0,13.4,1505.3,325.2,-0.7,1.8,2470.41,13.32,0.013,30.3